Погода Николаевск-
на-Амуре

Погода Николаевск-
на-Амуре : погода сейчас, прогноз погоды и архив. Всё, что Вы хотите узнать о погоде Николаевск-
на-Амуре!

Хотите узнать прогноз погоды Николаевск-
на-Амуре? Тогда Вам сюда: Погода Николаевск-
на-Амуре

Поиск расширенной информации на нашем сайте:

Другие новости

Новости СМИ2

Главная страница сайта

Новости сайта

02.10.2013

Напоминаем, что на нашем новом сайте вы можете получить высокодетализированные прогнозы погоды по пунктам России, СНГ и мира (включающие важные для авиации метеовеличины, такие как направление и скорость ветра, видимость, явления погоды, количество и форма облачности, нижняя и верхняя граница облачности), а также ознакомиться с разнообразными материалами по авиационной метеорологии и подборкой полезных ссылок на эту тему.

Сайт Метеоцентр.Азия посвящён разработке технологий оптимизации авиаметеорологического обслуживания, включая проектирование и перспективное создание нескольких автоматизированных авиаметеорологических систем:
- система выпуска высокодетальных прогностических карт явлений погоды для нижнего воздушного пространства по России и ближнему зарубежью;
- система верификации прогнозов TAF (выпускаемых синоптиками официальных АМСГ РФ и ближнего зарубежья) и AUTOTAF (выпускаемых сайтом Метеоцентр.Азия) - выявление ошибок, онлайн-сопоставление с фактической погодой METAR, автоматическое внесение коррективов в прогнозы при резком отклонении фактической погоды от прогноза, подсчёт оправдываемости прогнозов по элементам и в целом;
- система обработки, анализа и отображения авиаметеорологической информации для применения провайдерами метеорологической информации.


Погода Николаевск-
на-Амуре - сегодня

Время (UTC), дата Ветер
(°,м/с) 
Видим.   Явления Облачность Т
(°С)
Тd
(°С)
f(%) Тe
(°С)
Pmin
(гПа)
dP
(гПа)
Po
(мм)
O2
(г/м3)
Тmin Tmax R s Состояние
почвы
12 21.01.17 270 (З) 1000 м  сильн. снег  10/10 600 м 
[Sc]
-21.3 -23.8 80 -27  1024.4  -0.3  764  335           
15 21.01.17 270 (З) 2000 м  снег  10/10 600 м 
[Sc]
-20.7 -23.2 80 -26  1023.8  -0.6  763  334           
18 21.01.17 270 (З) 2000 м  снег  10/10 600 м 
[Sc]
-21.3 -23.8 80 -27  1023.1  -0.7  763  335           
21 21.01.17 тихо () -6  20000 м  {снег}  1/0 верхняя 
[Cs]
-24.4 -26.9 80 -24  1022.8  -0.4  762  339  -22.6    0.8  33  неравномерный
сухой снег
100% 
00 22.01.17 тихо () -6  20000 м  {снег}  1/0 верхняя 
[Cs]
-24.4 -26.9 80 -24  1022.8  -0.4  762  339  -22.6    0.8  33  неравномерный
сухой снег
100% 
03 22.01.17 230 (ЮЗ) 20000 м    8/0 
[Sc]
-20.8 -23.3 80 -25  1021.7  -0.9  762  334           
06 22.01.17 230 (ЮЗ) 20000 м    3/0 верхняя 
[Ci sp]
-19.3 -23.4 70 -24  1020.9  -0.7  761  332           
09 22.01.17 350 (С) н/о    н/о 
-24.8 -27.7 77 -25  1021.2  761  339    -19.2       
12 22.01.17 360 (С) 20000 м    ясно 
-28.4 -30.8 80 -29  1021.5  -0.3  761  344           
15 22.01.17 330 (СЗ) н/о    н/о 
-30.6 -34.3 70 -34  1021.4  -0.2  761  347           
18 22.01.17 310 (СЗ) 20000 м    ясно 
-30.1 -32.6 79 -34  1021.3  -0.1  761  347           
21 22.01.17 320 (СЗ) н/о    н/о 
-30.9 -34.5 71 -37  1021.1  -0.3  761  348  -33.3         
00 23.01.17 310 (СЗ) 20000 м    ясно 
-32.2 -35.3 74 -33  1021.5  0.3  761  350  -24.4         
03 23.01.17 240 (ЮЗ) 20000 м    ясно 
-25.1 -28.5 73 -30  1019.7  -1.7  760  339           
06 23.01.17 230 (ЮЗ) 20000 м    ясно 
-22.7 -27.1 67 -26  1018.8  -0.8  759  335           
09 23.01.17 340 (С) 20000 м    ясно 
-26.5 -29.7 74 -32  1018.6  -0.2  759  341    -22.5       
12 23.01.17 320 (СЗ) 20000 м    ясно 
-30.2 -33.9 70 -34  1018.1  -0.6  759  346           
15 23.01.17 340 (С) 20000 м    ясно 
-27.8 -31.3 72 -31  1016.6  -1.4  758  342           
18 23.01.17 310 (СЗ) 20000 м    ясно 
-28.6 -32.1 72 -32  1016.1  -0.5  757  343           
21 23.01.17 330 (СЗ) 20000 м    ясно 
-29.1 -32.6 72 -35  1016.2  0.1  757  343  -30.6      33  неравномерный
сухой снег
100% 
00 24.01.17 300 (СЗ) 20000 м    1/0 верхняя 
[Ci sp]
-27.8 -31.2 73 -33  1016.9  0.8  758  342  -31.4         
03 24.01.17 230 (ЮЗ) 20000 м    6/0 верхняя 
[Cs]
-21.4 -25.9 67 -22  1016.1  -0.8  757  333           
06 24.01.17 260 (З) 20000 м    4/4 600 м верхняя 
[Sc|Cs]
-18.7 -24.4 61 -21  1015.7  -0.3  757  329           
09 24.01.17 320 (СЗ) 20000 м    ясно 
-22.1 -25.2 76 -25  1016.4  0.7  758  334    -18.6       
12 24.01.17 340 (С) 20000 м    ясно 
-26.6 -29.8 74 -30  1017  0.4  758  340           
Время (UTC), дата Ветер
(°,м/с) 
Видим.   Явления Облачность Т
(°С)
Тd
(°С)
f(%) Тe
(°С)
Pmin
(гПа)
dP
(гПа)
Po
(мм)
O2
(г/м3)
Тmin Tmax R s Состояние
почвы

Для получения пояснительной информации подведите курсор к названию столбца.

ПОГОДА Николаевск-
на-Амуре - архив

Всё, что Вы хотите узнать о погоде Николаевск-
на-Амуре - удобно и подробно!

Выберите нужную дату (начиная с 1 января 2015* года) и нажмите кнопку "Найти".
Будут отображены архивные сводки погоды по пункту Николаевск-
на-Амуре, начиная с указанной даты.


Отображать данные в формате CSV (для использования в таблицах Excel)


Внимание! Наш архив погоды предназначен исключительно для личного некоммерческого использования в познавательных целях. Если Вам необходимы официальные справки о состоянии погоды (для производственных, юридических, коммерческих и т.п. целей), обращайтесь в органы Росгидромета.

*Примечание: данная дата относится к архиву по метеостанциям СССР (Россия, СНГ, Балтия).
Архив по метеостанциям Зарубежной Европы и Азии (кроме Китая) хранится 10 дней, по другим регионам земного шара (Китай, Африка, Америка, Австралия, Океания) - 1 день.

Николаевск-
на-Амуре - район местоположения метеостанции


Название, широта, долгота, высота метеостанции:
Николаевск-на-Амуре 53.2°ш. 140.7°д. 68 м над ур. моря [Российская Федерация]

Дополнительная информация

В oтличие oт бoльшинства пoгoдных сайтoв мы публикуем пoдрoбную метеoинфoрмацию в детальнoм прoфессиoнальнoм фoрмате.

Характеристики температуры и влажнoсти вoздуха измеряются на высoте 2 м в тени вдали oт зданий и деревьев.
Скoрoсть ветра измеряется на высoте 10 м (на урoвне рoста челoвека скoрoсть ветра ниже в 1.5-2 раза). Если метеoстанция нахoдится в гoрoде или в лесу, тo скoрoсть ветра занижена на 2-4 м/с пo сравнению с oткрытым местoм. Скoрoсть ветра над акватoриями крупных рек и oзёр, а также на вершинах хoлмoв на 2-5 м/с выше, чем в oбычных услoвиях.
Атмoсфернoе давление в разных тoчках местнoсти мoжет значительнo oтличаться oт давления на метеoстанции, в зависимoсти oт услoвий рельефа (при пoдъёме на 10 м давление пoнижается примернo на 1 мм рт.ст.).